Location: Beekmeers
(50.8953°N, 3.6968°E)
Time: 14:39:57
(UTC+00:00)

Cosmos 1400 Rocket - Pass Details

Date: 23 May 2024
Orbit: 501 x 544 km, 81.2° (Epoch: 16 June)

Event Time Altitude Azimuth Distance (km) Brightness Sun altitude
Exits shadow 00:32:27 41° 198° (SSW) 804 3.1 -17.6°
Maximum altitude 00:33:48 83° 282° (WNW) 556 2.7 -17.6°
Drops below altitude 10° 00:37:49 10° 11° (N) 1,817 6.8 -17.4°
Sets 00:39:59 0° 12° (NNE) 2,709 8.1 -17.3°
